Location: Newark
(40.7060°N, 73.9980°W)
Time: 05:51:39
(UTC+00:00)

N. Korean satellite - Pass Details

Date: 20 November 2019
Orbit: 455 x 506 km, 97.2° (Epoch: 12 December)

Event Time Altitude Azimuth Distance (km) Brightness Sun altitude
Rises 10:26:05 0° 18° (NNE) 2,611 10.3 -15.5°
Reaches altitude 10° 10:28:16 10° 25° (NNE) 1,716 9.5 -15.1°
Maximum altitude 10:31:48 43° 98° (E) 710 7.9 -14.5°
Drops below altitude 10° 10:35:16 10° 171° (S) 1,679 9.6 -13.8°
Sets 10:37:23 0° 178° (S) 2,547 10.4 -13.4°
